Weather Roundup
Issued by NWS Springfield, MO

Home | Current Version | Previous Version | Text Only | Print | Product List | Glossary On
Versions: 1 2 3 4 5 6 7 8 9 10 11 12 13 14 15 16 17 18 19 20 21 22 23 24 25 26 27 28 29 30 31 32 33 34 35 36 37 38 39 40 41 42 43 44 45 46 47 48 49 50
000
NZUS99 KSGF 042207
HRRSGF

HOURLY WEATHER
NATIONAL WEATHER SERVICE SPRINGFIELD MO
500 PM CDT SAT JUL 04 2015

......SGF CWA......

CITY           SKY/WX    TMP DP  RH WIND       PRES   REMARKS
SPRINGFIELD    MOSUNNY   84  64  50 E5        29.97F
JOPLIN         SUNNY     87  67  51 SE6       29.95F HX  90
WEST PLAINS    MOSUNNY   81  65  58 S3        29.99F
ROLLA          SUNNY     80  63  55 CALM      29.98F
OSAGE BEACH    SUNNY     82  63  51 CALM      29.98F
BRANSON        PTSUNNY   84  68  58 SE6       29.98F

......SURROUNDING SGF CWA......

CITY           SKY/WX    TMP DP  RH WIND       PRES   REMARKS
CHANUTE        MOSUNNY   86  66  51 SE8       29.95F
PARSONS        MOSUNNY   87  68  52 S5        29.95F HX  90
COFFEYVILLE    MOSUNNY   89  66  46 MISG      29.92F HX  91
EMPORIA        MOSUNNY   87  60  40 SE8       29.95F
GROVE OK       SUNNY     88  66  48 CALM      29.94F HX  90
ROGERS AR      SUNNY     84  67  56 SE8       29.97F
SILOAM SPRINGS MOSUNNY   84  66  54 CALM      29.96F
HARRISON AR    MOSUNNY   81  67  62 SE5       29.98S
NEAR YELLVILLE   N/A     84  70  61 E6        29.94S

......KANSAS AND MISSOURI......

CITY           SKY/WX    TMP DP  RH WIND       PRES   REMARKS
KANSAS CTY INT PTSUNNY   81  62  52 S5        29.98S
DOWNTOWN KC    PTSUNNY   83  61  47 SE5       29.96F
COLUMBIA       MOSUNNY   81  64  56 CALM      29.99S
SEDALIA        SUNNY     82  63  52 S6        29.99F
ST JOSEPH      PTSUNNY   82  63  52 S7        29.96F
ST LOUIS       PTSUNNY   83  60  45 E7        29.98F
SPIRIT OF STL  MOSUNNY   82  63  52 CALM      29.97S
KIRKSVILLE     SUNNY     81  58  45 SW5       30.00S
WICHITA        MOSUNNY   91  62  37 S7        29.92F HX  91
TOPEKA         PTSUNNY   83  65  54 SE12      29.96F
OLATHE         MOSUNNY   79  62  56 SE7       29.97F

......TENNESSEE......

CITY           SKY/WX    TMP DP  RH WIND       PRES   REMARKS
MEMPHIS        CLOUDY    77  69  76 W5        29.97R
NASHVILLE      CLOUDY    77  73  87 SE3       29.97F

......ARKANSAS.......

CITY           SKY/WX    TMP DP  RH WIND       PRES   REMARKS
FAYETTEVILLE   PTSUNNY   83  71  67 SW7       29.96S
FT SMITH       MOSUNNY   88  67  49 E3        29.91F HX  91
LITTLE ROCK    MOSUNNY   84  69  60 SW6       29.94F

......OKLAHOMA.......

CITY           SKY/WX    TMP DP  RH WIND       PRES   REMARKS
TULSA          MOSUNNY   90  67  46 VRB3      29.90F HX  93
PONCA CITY     SUNNY     90  66  45 SE8       29.90F HX  92
MCALESTER      MOSUNNY   91  74  57 CALM      29.91F HX 100
OKLAHOMA CITY  PTSUNNY   84  73  69 S5        29.93S HX  90

......IOWA............

CITY           SKY/WX    TMP DP  RH WIND       PRES   REMARKS
DES MOINES     PTSUNNY   82  58  43 S8        29.96F
QUAD CITIES    SUNNY     79  60  52 S7        29.99F

......ILLINOIS........

CITY           SKY/WX    TMP DP  RH WIND       PRES   REMARKS
QUINCY         SUNNY     81  59  47 S3        29.99S
CHICAGO        MOSUNNY   80  55  42 W7        29.99S




USA.gov is the U.S. government's official web portal to all federal, state and local government web resources and services.